Temperature
26 26 26 26 29 30 31 31 32 31 31 31 31 30 28 27 26 25 24 23 21 21 21 20 20 20 20 19 19 19 19 19 19 19 19 19 19 18 18 18 18 18 18 18 18 18 18 18 18
27 26 27 29 29 30 30 32 31 32 32 31 30 29 28 27 26 25 24 22 21 21 20 20 20 20 20 19 19 19 19 19 19 18 18 18 18 18 18 18 18 18 18 18 18 18 18 18 18
27 27 29 31 31 31 31 32 32 32 32 31 30 29 27 26 25 24 23 23 21 20 20 21 20 20 19 19 19 19 19 19 19 18 18 18 18 18 18 18 18 18 18 18 18 18 18 18 18
27 30 31 32 31 32 32 33 33 32 32 31 30 28 26 26 25 24 23 23 21 20 20 21 20 20 19 19 19 19 19 18 18 18 18 18 18 18 18 18 18 18 18 18 18 18 18 18 18
29 31 31 32 32 33 34 33 33 32 32 31 29 27 26 25 24 24 24 23 22 20 20 21 20 20 19 19 19 19 19 18 18 18 18 18 18 18 18 18 18 18 18 18 18 18 18 18 18
31 32 31 31 32 33 34 33 33 33 32 31 29 27 25 25 24 24 24 23 22 21 20 21 20 20 19 19 19 19 19 18 18 18 18 18 18 18 18 18 18 18 18 18 18 18 18 18 18
31 31 31 32 32 33 34 33 33 33 32 31 30 27 26 25 24 24 24 23 22 21 21 21 20 20 20 19 19 19 19 18 18 18 18 18 18 18 18 18 18 18 18 18 18 18 18 18 18
32 32 32 33 33 33 34 34 33 32 32 31 30 28 26 24 24 24 23 23 22 21 20 20 19 20 19 19 19 19 19 19 18 18 18 18 18 18 18 18 18 18 18 18 18 18 18 18 18
33 32 32 33 33 34 34 33 33 32 31 30 29 28 26 24 24 23 23 22 22 21 20 20 19 19 19 19 19 19 19 19 18 18 18 18 18 18 18 18 18 18 18 18 18 18 18 18 18
33 32 33 35 35 35 34 33 33 31 30 29 28 27 25 24 24 23 23 22 22 21 21 20 20 19 19 18 19 19 18 19 18 18 18 18 18 17 17 18 18 18 18 18 18 18 18 18 18
34 33 34 35 35 34 34 34 33 32 30 29 28 26 25 24 24 24 23 23 22 21 21 20 20 20 19 19 19 18 18 18 18 18 18 18 18 18 18 18 18 18 18 18 18 18 17 17 17
34 34 35 35 35 34 34 34 34 33 31 29 28 26 25 24 24 24 23 23 22 21 21 20 20 20 19 19 19 19 18 18 18 18 18 18 18 18 18 18 18 18 18 18 17 17 17 17 17
34 34 35 35 35 34 33 33 33 32 31 30 28 27 26 25 24 24 23 22 22 21 21 20 20 20 19 19 19 19 19 19 19 18 18 18 18 18 18 18 18 18 18 18 18 17 17 17 17
34 34 35 35 34 34 33 32 32 32 31 30 28 27 26 25 24 23 22 22 21 21 20 20 20 20 19 19 19 19 19 19 19 18 18 18 18 18 18 18 18 18 18 18 18 18 18 18 18
34 34 34 35 35 34 33 31 32 32 31 30 29 27 26 25 24 23 22 22 21 20 20 20 19 19 19 19 19 19 19 19 19 19 18 18 18 18 18 18 18 18 18 18 18 18 18 18 18
34 33 33 34 35 34 33 31 32 32 31 31 29 28 26 25 24 23 22 21 21 20 20 20 19 19 19 19 19 19 19 19 19 18 18 18 18 18 18 18 18 18 18 18 18 18 18 18 18
33 33 33 34 35 35 34 32 33 32 32 31 30 28 27 25 24 23 22 21 21 20 20 19 19 19 19 19 19 19 19 19 19 18 18 18 18 18 18 18 18 18 18 18 18 18 18 18 18
33 34 34 34 35 35 34 33 33 33 32 31 30 29 27 25 24 23 22 21 20 20 20 19 19 19 19 19 19 18 18 18 19 18 18 18 18 18 18 18 18 18 18 18 18 18 18 18 18
33 33 33 34 35 34 33 33 33 33 32 32 30 29 27 25 24 23 22 21 20 20 20 19 19 19 19 19 19 18 18 18 18 18 18 18 18 18 18 18 18 18 18 18 18 18 18 18 18
33 33 33 34 35 34 33 33 34 33 33 32 31 29 27 26 24 22 21 21 20 19 19 19 19 19 19 19 19 18 18 18 18 18 18 18 18 18 18 18 18 18 18 18 18 18 18 18 18
33 33 33 33 34 34 34 32 32 32 32 31 31 29 28 26 24 22 21 21 20 19 19 19 19 19 19 18 18 18 18 18 18 18 18 18 18 18 18 18 18 18 18 18 18 18 18 18 18
32 34 33 33 33 32 33 31 31 31 31 32 31 30 28 27 25 23 22 21 20 19 19 19 19 19 19 18 18 18 18 18 18 18 18 18 18 18 18 18 18 18 18 18 18 18 18 18 18
33 34 33 33 32 32 32 32 31 32 31 31 31 30 28 27 25 23 22 21 20 19 19 19 19 18 18 18 18 18 18 18 18 18 18 18 18 18 18 18 18 18 18 18 18 18 18 18 18
33 33 33 33 32 30 31 31 31 31 31 32 31 30 28 27 25 23 22 21 20 19 19 19 18 18 18 18 18 18 18 18 18 18 18 18 18 18 18 18 18 18 18 18 18 18 18 18 18
33 31 30 30 30 30 31 32 31 32 33 33 31 30 28 26 25 24 22 21 20 20 19 19 18 18 18 18 18 18 18 18 18 18 18 18 18 18 18 18 18 18 18 18 18 18 18 18 18
32 32 30 29 29 30 30 30 31 33 33 32 31 30 28 26 25 24 22 21 20 20 19 19 19 18 18 18 18 18 18 18 18 18 18 18 18 18 18 18 18 18 18 18 18 18 18 17 18
32 32 33 32 31 30 30 31 31 32 32 32 31 30 28 27 25 24 23 22 21 20 20 19 19 19 18 18 18 18 18 18 18 18 18 18 18 18 18 18 18 18 17 17 17 17 17 17 17
33 33 32 31 30 29 30 30 30 31 31 31 31 29 28 27 26 24 23 22 21 20 20 19 19 19 19 19 18 18 18 18 18 18 18 18 18 18 18 18 18 17 17 17 17 17 17 17 17
32 31 31 31 31 30 29 28 30 30 31 31 31 29 28 27 26 25 23 22 22 21 20 19 19 19 19 19 19 18 18 18 18 18 18 18 18 18 18 18 17 17 17 17 17 17 17 17 17
33 32 31 30 30 30 30 29 31 31 32 31 30 29 28 27 26 25 24 23 22 21 20 20 19 19 19 18 18 18 18 18 18 18 18 18 18 17 17 17 17 17 17 17 17 17 16 16 16
Wind_Speed
12 14 11 7 3 4 16 18 17 16 16 15 15 16 20 17 12 13 15 21 23 20 19 18 17 16 16 15 15 14 14 14 13 13 13 13 13 13 13 14 14 14 14 14 15 15 15 15 15
12 14 9 4 1 10 15 15 16 15 13 14 17 19 20 18 17 16 17 20 22 20 18 18 17 16 16 15 14 14 14 13 13 12 12 12 12 13 13 13 14 14 14 15 15 15 15 14 14
13 15 6 1 8 13 15 14 14 14 13 15 18 18 15 14 15 14 17 20 21 19 20 19 17 17 16 15 14 14 13 13 12 12 12 12 12 13 13 13 14 14 14 15 14 14 14 13 12
9 6 3 4 13 14 14 12 13 13 13 15 14 13 13 13 15 17 17 20 21 20 20 19 17 17 16 15 14 14 13 12 12 12 11 11 12 12 13 13 14 14 14 14 14 14 13 12 10
9 4 0 7 12 13 13 13 13 13 13 16 18 17 14 16 18 18 16 19 19 20 19 19 17 16 16 15 14 13 12 12 12 11 11 12 12 12 13 13 13 14 14 14 14 13 12 11 9
5 4 1 8 12 12 12 12 12 13 12 14 16 16 13 15 15 16 15 15 18 20 19 18 17 16 15 15 14 13 12 11 11 11 11 12 12 12 13 13 13 13 13 13 13 12 11 10 7
4 4 3 8 10 11 11 11 11 12 12 12 14 14 12 14 14 14 14 15 17 19 18 16 16 15 15 14 14 13 12 11 11 11 11 12 12 12 12 13 12 13 12 12 12 12 11 9 6
4 3 2 6 10 11 10 11 11 11 10 9 10 10 14 15 14 14 13 14 15 15 16 15 16 15 14 14 13 13 12 12 11 11 11 11 12 12 13 13 12 12 11 11 11 10 9 8 5
4 2 4 7 8 9 10 9 8 10 10 11 13 15 18 19 16 14 13 13 12 12 12 13 14 14 14 14 14 13 12 11 11 10 11 11 11 12 11 13 12 11 11 10 10 9 8 7 4
1 2 4 7 8 8 8 6 4 8 10 10 13 17 19 18 16 15 14 13 13 12 11 9 12 12 13 13 13 12 11 11 9 9 11 9 7 9 12 13 12 11 10 9 9 9 8 7 6
1 3 4 6 8 6 5 5 5 9 8 9 13 18 18 17 15 14 13 13 12 11 10 11 10 9 9 9 10 8 9 9 8 9 9 8 8 10 12 10 10 10 10 9 9 9 7 6 4
1 3 4 4 5 4 4 4 5 8 9 11 14 17 17 16 14 13 12 12 12 11 9 10 9 7 6 7 7 7 7 7 6 8 8 7 4 4 7 7 9 9 8 6 7 5 5 4 4
2 3 3 2 1 3 5 6 6 7 10 13 14 15 15 14 13 12 11 10 10 10 9 8 9 7 5 5 3 6 5 6 8 9 7 7 5 3 4 4 5 6 7 6 4 4 4 4 3
6 6 4 3 2 1 3 3 2 4 9 13 13 13 14 13 13 12 10 10 10 9 8 8 8 8 6 4 1 2 5 6 8 8 8 6 6 5 4 3 2 3 5 5 4 4 3 2 2
7 8 8 6 3 1 2 1 3 6 8 11 12 12 12 12 12 13 12 11 11 10 9 8 8 8 7 6 4 4 3 6 5 7 9 7 7 7 4 3 2 3 5 5 3 3 3 3 3
10 10 10 7 3 2 2 1 5 6 8 9 10 11 12 10 11 11 11 10 10 10 10 9 9 9 8 6 4 2 3 4 5 6 8 7 8 8 5 3 3 5 5 4 2 2 2 2 2
12 11 8 4 4 2 2 1 6 6 7 9 9 10 11 11 10 10 11 10 10 10 9 8 6 8 8 7 4 2 2 3 5 6 7 7 8 7 5 2 3 5 3 3 3 3 1 2 2
9 7 4 2 2 2 3 2 4 5 5 8 9 10 10 11 10 10 10 10 9 9 9 9 7 7 7 6 4 2 2 3 4 4 6 8 7 7 5 4 5 4 2 2 2 2 1 1 2
9 10 7 4 2 4 5 4 3 5 5 6 9 10 10 10 11 10 10 10 9 9 9 9 9 8 6 6 6 5 4 3 3 4 8 8 7 7 4 2 4 3 2 3 3 3 3 3 3
9 9 9 6 2 5 6 6 3 5 5 5 8 11 11 10 11 11 10 10 10 9 9 8 8 8 8 6 5 4 4 3 4 3 6 8 8 8 7 4 3 3 3 3 3 2 2 3 3
10 10 8 8 7 9 9 7 3 2 2 6 6 9 12 12 13 12 11 9 9 9 9 8 8 8 8 7 5 5 4 3 3 4 4 5 7 8 6 5 4 3 4 4 4 4 4 2 2
11 9 8 9 10 9 9 5 4 7 6 6 7 8 11 12 12 12 11 10 9 9 8 7 7 7 7 7 7 8 7 6 5 5 5 5 6 6 6 5 5 3 3 4 5 5 4 3 3
11 8 8 10 11 11 11 8 3 7 5 6 6 7 11 11 12 11 10 9 8 8 8 7 7 6 7 7 7 7 6 5 4 4 5 5 5 5 7 7 5 4 3 4 4 3 3 3 3
10 9 10 12 11 11 11 8 1 4 4 5 8 8 10 11 11 11 10 9 7 8 7 8 7 6 6 7 6 6 6 5 4 4 5 5 4 5 7 7 6 5 4 4 4 3 5 4 3
10 9 8 8 7 7 8 6 3 6 5 5 8 9 10 10 10 10 10 10 8 8 8 8 8 7 7 7 6 6 5 6 6 5 5 5 4 4 6 6 5 4 4 4 4 4 4 4 4
12 13 10 7 6 3 2 2 4 6 7 7 8 9 10 11 10 10 10 10 9 8 8 7 7 7 7 6 6 5 5 5 4 5 4 4 4 4 4 4 4 4 5 5 4 4 5 4 4
13 13 15 14 13 9 4 4 7 8 8 8 9 9 9 10 10 10 10 10 9 9 8 7 7 6 6 6 5 5 4 4 3 3 3 3 2 3 3 3 4 4 4 3 3 3 4 3 4
15 12 9 10 8 8 6 4 3 8 9 9 8 9 9 11 11 10 9 10 9 9 8 7 6 6 4 5 5 5 5 4 3 3 2 2 1 1 1 1 2 3 3 2 2 3 3 3 3
13 13 11 9 8 9 5 1 3 5 7 9 9 9 10 10 11 11 10 9 9 9 9 8 7 6 5 4 4 4 4 4 4 2 2 2 2 2 1 1 1 1 1 1 1 2 1 2 2
13 14 13 9 8 9 8 2 6 4 7 8 9 9 10 9 9 11 11 10 9 9 9 8 7 6 5 4 4 4 4 3 3 3 2 2 2 1 1 1 1 1 1 1 1 0 0 0 0
Wind_Direction
273 262 243 259 258 72 64 63 63 61 62 59 57 66 66 61 71 93 112 112 114 117 120 117 117 118 118 118 117 115 114 111 108 105 102 100 99 99 99 97 98 99 100 100 100 100 99 98 99
283 278 262 258 12 71 70 67 67 65 66 67 64 70 75 74 85 103 111 117 119 122 123 118 119 120 120 119 119 116 115 113 111 108 106 105 105 104 102 101 102 102 102 101 100 101 101 101 101
271 267 277 226 66 70 72 70 75 73 72 75 72 66 71 88 99 111 121 125 120 118 116 118 120 119 119 119 118 116 115 115 113 112 110 109 107 106 105 104 103 104 104 104 104 104 103 104 106
274 269 245 78 74 74 77 75 78 76 71 75 80 78 75 88 109 119 129 122 118 120 119 122 121 120 119 119 118 117 116 118 117 115 113 111 109 109 108 106 105 106 105 105 105 105 105 108 109
274 287 346 81 82 79 79 77 78 78 74 81 87 91 88 93 109 123 128 122 124 121 122 126 125 123 122 121 121 120 120 120 119 118 115 112 111 110 109 109 107 107 106 105 106 106 107 108 108
291 282 35 78 82 77 77 77 78 79 80 90 97 98 99 111 121 130 127 125 124 122 124 128 129 129 129 127 126 125 124 122 120 119 117 115 113 111 112 112 111 109 108 108 109 109 109 110 112
284 320 37 87 86 82 77 76 75 79 77 79 95 105 120 127 130 131 124 122 123 125 129 137 138 136 135 132 132 131 129 127 126 124 123 121 119 117 116 115 114 112 111 111 113 113 111 112 116
288 315 357 81 81 78 76 77 78 81 79 77 94 116 135 136 139 130 127 124 124 130 136 143 147 145 145 140 138 137 135 134 134 134 133 132 129 127 126 121 118 117 117 118 120 121 120 122 130
303 330 21 67 75 80 75 72 80 86 77 70 68 105 132 142 142 137 134 130 131 132 139 148 146 152 152 146 143 145 143 144 146 148 150 153 153 143 139 123 126 125 127 131 133 137 140 144 160
327 338 43 61 66 67 79 82 79 87 79 86 94 111 131 143 147 150 148 147 144 141 142 143 145 152 154 145 146 156 155 155 170 159 164 177 163 145 130 135 135 137 140 146 155 162 167 177 178
312 353 21 52 62 53 56 76 75 87 104 128 130 134 141 148 155 158 155 155 149 149 149 146 144 143 143 138 150 155 150 157 172 161 164 170 155 141 135 144 148 155 162 169 166 183 195 189 176
303 328 351 26 50 46 33 44 62 74 97 124 134 140 147 156 162 160 160 156 151 154 150 143 133 131 130 135 142 155 156 155 158 157 169 157 159 150 147 156 162 170 173 168 169 174 165 157 140
260 288 307 338 357 38 19 21 47 83 100 115 129 140 150 159 162 160 153 148 147 152 150 137 128 125 116 112 149 158 148 157 154 157 168 159 156 141 136 145 151 169 157 165 166 138 142 136 131
314 309 300 288 320 28 46 20 50 120 119 125 137 146 156 160 159 155 159 153 153 154 147 140 138 133 133 138 150 131 142 141 155 158 158 164 142 135 137 151 168 161 135 132 133 138 144 138 142
284 284 277 254 234 198 76 293 177 147 139 139 144 150 156 162 162 161 163 160 160 153 149 150 152 148 154 166 183 167 162 156 148 143 150 160 146 142 148 153 191 148 131 132 149 156 157 176 171
260 255 254 241 214 188 200 209 157 164 150 143 147 152 157 161 164 161 160 161 158 154 157 165 171 159 165 172 193 193 173 150 137 143 150 155 146 157 168 173 178 150 154 164 161 180 179 177 169
248 245 246 200 176 230 275 199 169 175 154 148 152 153 155 158 163 158 160 157 155 154 160 168 162 159 170 171 184 201 160 148 152 152 155 158 159 166 178 159 142 170 181 176 189 153 180 187 177
296 285 266 248 133 320 297 261 166 149 163 157 155 153 157 162 166 159 155 152 152 151 158 164 164 169 175 170 173 180 191 174 162 154 156 159 167 178 191 171 166 184 175 166 144 131 198 209 212
299 307 308 311 358 306 296 281 207 160 176 163 154 155 158 159 158 151 152 156 158 157 162 166 171 175 176 173 174 181 191 188 173 168 164 169 180 182 202 195 161 192 181 173 175 174 204 225 212
278 280 282 286 305 287 283 288 251 168 174 160 159 158 161 159 153 151 156 161 162 164 170 176 178 177 180 178 177 177 181 195 185 180 163 178 179 185 195 198 190 190 171 172 189 187 218 241 212
262 266 281 301 304 278 267 262 233 184 166 152 163 158 158 163 158 158 164 164 164 170 178 181 176 177 181 178 183 179 174 193 185 170 174 188 186 193 201 176 198 192 192 185 194 202 206 238 254
257 264 279 287 287 290 289 280 186 174 196 174 159 158 157 157 155 158 163 165 171 176 176 167 172 176 176 185 196 191 190 192 192 183 182 187 194 195 192 191 197 205 206 184 203 201 207 220 247
262 284 284 275 276 280 281 281 186 166 165 164 150 146 142 147 152 155 159 159 167 169 166 164 168 176 181 193 203 201 201 200 191 182 175 187 194 199 204 197 194 202 216 205 201 178 207 223 236
259 270 271 263 265 265 265 271 181 125 135 145 134 128 133 141 145 149 153 152 158 159 161 166 167 178 187 195 203 205 205 196 192 192 180 193 200 205 213 201 190 199 209 203 201 197 207 221 235
235 246 254 250 241 250 259 256 113 112 104 106 121 130 128 134 144 147 148 150 155 157 160 164 169 180 188 196 204 207 206 200 198 204 196 199 207 210 213 203 188 197 199 202 204 201 212 219 221
222 237 249 271 281 288 234 262 119 110 105 109 117 124 133 141 147 145 147 151 156 157 160 162 167 179 192 198 200 202 201 207 204 206 206 206 212 217 207 194 186 189 200 209 198 211 212 213 219
232 233 252 267 276 278 245 184 149 131 130 126 125 130 138 142 139 142 149 153 155 158 160 161 164 173 185 190 188 190 196 207 207 195 199 208 214 208 191 183 190 192 202 210 203 217 220 205 213
248 250 256 264 281 284 263 256 151 141 141 133 131 132 132 133 139 145 150 153 153 153 152 155 156 161 164 169 185 177 184 190 191 197 193 184 184 135 157 176 189 192 192 201 215 235 223 222 223
223 243 257 274 273 279 280 81 116 143 145 140 137 133 135 140 143 145 148 151 151 148 152 154 148 148 156 166 165 152 162 175 176 176 172 149 126 134 148 139 158 175 185 190 191 231 212 219 228
230 229 235 247 265 277 283 188 147 154 141 131 125 131 135 137 138 140 143 148 151 151 150 150 151 155 152 146 141 137 140 152 157 161 153 134 124 122 110 110 115 132 120 110 112 171 185 91 64
Height
1486 1484 1485 1487 1484 1483 1486 1482 1479 1481 1482 1485 1485 1487 1493 1498 1504 1517 1520 1521 1523 1525 1528 1530 1532 1534 1536 1538 1540 1541 1542 1544 1545 1546 1547 1548 1549 1550 1551 1551 1552 1553 1554 1555 1555 1556 1557 1558 1560
1486 1487 1489 1486 1486 1494 1493 1483 1484 1484 1485 1487 1489 1493 1498 1504 1510 1516 1520 1524 1525 1527 1530 1532 1534 1536 1538 1540 1541 1543 1544 1546 1547 1548 1549 1550 1551 1552 1553 1553 1554 1555 1556 1557 1558 1558 1559 1561 1562
1487 1488 1488 1482 1484 1492 1492 1483 1483 1485 1487 1489 1493 1498 1503 1510 1514 1518 1523 1526 1528 1530 1531 1533 1536 1538 1540 1541 1543 1545 1546 1548 1549 1550 1551 1552 1553 1554 1555 1555 1556 1557 1558 1559 1560 1561 1562 1563 1564
1491 1488 1485 1482 1488 1483 1482 1482 1483 1486 1488 1491 1495 1503 1509 1513 1516 1521 1524 1527 1529 1531 1533 1535 1537 1539 1541 1543 1545 1546 1548 1549 1550 1552 1553 1554 1555 1556 1557 1557 1558 1559 1560 1561 1562 1563 1564 1565 1566
1492 1488 1485 1486 1485 1480 1480 1482 1485 1488 1490 1494 1499 1507 1514 1518 1520 1523 1526 1529 1531 1533 1534 1537 1539 1541 1543 1545 1546 1548 1550 1551 1552 1553 1554 1555 1556 1557 1559 1559 1560 1561 1562 1563 1564 1565 1566 1567 1568
1492 1486 1491 1494 1486 1481 1481 1483 1486 1489 1493 1495 1501 1508 1517 1521 1523 1525 1528 1531 1533 1534 1536 1538 1540 1542 1544 1546 1548 1549 1551 1552 1554 1555 1556 1557 1558 1559 1560 1561 1562 1563 1564 1565 1566 1567 1568 1569 1570
1492 1489 1491 1489 1487 1485 1483 1485 1487 1490 1494 1497 1501 1509 1517 1522 1525 1527 1529 1532 1534 1535 1537 1539 1541 1543 1545 1547 1549 1551 1552 1554 1555 1556 1558 1559 1560 1561 1562 1563 1564 1565 1566 1567 1568 1569 1570 1572 1573
1489 1489 1489 1485 1487 1488 1484 1486 1489 1492 1496 1499 1501 1507 1516 1522 1525 1528 1530 1533 1535 1537 1538 1540 1543 1544 1546 1548 1550 1552 1553 1555 1557 1558 1559 1560 1562 1563 1564 1565 1566 1567 1568 1569 1571 1572 1573 1574 1575
1488 1492 1493 1487 1485 1485 1485 1488 1490 1494 1498 1501 1504 1507 1514 1520 1524 1528 1531 1534 1536 1538 1540 1542 1544 1546 1548 1549 1551 1553 1555 1556 1558 1559 1561 1562 1563 1565 1566 1567 1568 1569 1570 1571 1572 1574 1575 1576 1577
1488 1493 1489 1481 1481 1483 1485 1489 1490 1494 1501 1505 1509 1512 1516 1520 1524 1527 1530 1533 1536 1539 1541 1543 1545 1547 1549 1551 1552 1554 1556 1557 1559 1561 1562 1563 1565 1567 1568 1569 1570 1571 1572 1573 1574 1575 1576 1577 1579
1486 1487 1483 1481 1483 1485 1486 1487 1490 1493 1500 1504 1509 1513 1517 1520 1524 1527 1530 1533 1536 1538 1541 1543 1545 1547 1550 1551 1553 1555 1557 1558 1560 1562 1563 1565 1566 1568 1569 1569 1571 1572 1573 1574 1576 1577 1578 1579 1580
1487 1485 1484 1483 1485 1486 1487 1488 1490 1493 1499 1503 1508 1511 1516 1520 1523 1526 1529 1532 1535 1538 1541 1543 1545 1547 1549 1551 1553 1555 1557 1559 1561 1562 1564 1566 1567 1569 1570 1570 1571 1573 1574 1576 1577 1578 1579 1580 1581
1486 1486 1485 1485 1485 1487 1489 1491 1492 1495 1500 1504 1508 1512 1516 1519 1522 1526 1529 1532 1534 1537 1540 1542 1544 1546 1549 1551 1553 1556 1558 1559 1561 1563 1564 1566 1568 1569 1570 1571 1573 1574 1575 1576 1578 1579 1580 1581 1582
1487 1486 1485 1485 1486 1487 1490 1491 1496 1497 1500 1504 1509 1512 1516 1519 1522 1525 1528 1530 1533 1536 1538 1541 1543 1545 1548 1550 1552 1555 1557 1559 1560 1562 1564 1566 1567 1569 1570 1571 1573 1574 1576 1577 1578 1579 1580 1581 1582
1490 1488 1486 1483 1483 1485 1489 1495 1494 1496 1499 1503 1507 1512 1516 1519 1521 1524 1526 1529 1532 1534 1537 1540 1542 1544 1546 1549 1552 1554 1556 1558 1560 1562 1563 1565 1567 1568 1570 1572 1573 1575 1576 1577 1578 1579 1580 1581 1582
1488 1489 1492 1482 1481 1483 1490 1501 1493 1495 1497 1501 1506 1510 1515 1518 1521 1523 1526 1528 1531 1533 1535 1538 1541 1542 1545 1548 1550 1553 1556 1558 1559 1561 1562 1564 1566 1568 1569 1571 1573 1574 1575 1576 1578 1579 1580 1581 1582
1489 1493 1489 1482 1478 1480 1485 1494 1490 1492 1494 1499 1504 1508 1513 1517 1520 1523 1525 1527 1529 1531 1534 1536 1539 1541 1544 1546 1549 1552 1554 1556 1558 1560 1562 1563 1565 1567 1569 1570 1572 1573 1575 1576 1577 1578 1579 1580 1581
1494 1487 1484 1483 1477 1480 1484 1487 1486 1488 1492 1496 1502 1507 1512 1516 1519 1522 1525 1526 1528 1530 1532 1534 1537 1540 1542 1545 1547 1550 1553 1555 1557 1559 1560 1562 1564 1566 1568 1569 1571 1572 1574 1575 1576 1577 1578 1579 1580
1489 1488 1488 1482 1477 1482 1485 1485 1484 1486 1490 1494 1499 1504 1510 1514 1518 1521 1524 1526 1527 1529 1530 1532 1535 1538 1540 1543 1546 1548 1550 1553 1555 1557 1558 1561 1563 1565 1567 1568 1570 1571 1572 1573 1575 1576 1577 1578 1579
1490 1493 1490 1482 1477 1482 1485 1485 1481 1484 1488 1492 1496 1502 1507 1512 1516 1520 1522 1525 1526 1527 1529 1530 1532 1535 1538 1541 1544 1547 1549 1552 1554 1556 1557 1559 1561 1563 1565 1567 1568 1570 1571 1572 1573 1575 1576 1577 1578
1492 1492 1490 1488 1482 1479 1483 1489 1485 1486 1488 1492 1495 1499 1504 1510 1514 1518 1521 1523 1525 1526 1527 1529 1530 1533 1536 1539 1543 1545 1548 1550 1552 1554 1555 1558 1560 1561 1563 1565 1566 1568 1569 1570 1571 1573 1574 1575 1577
1495 1484 1485 1488 1492 1493 1486 1503 1491 1487 1489 1489 1493 1498 1502 1507 1512 1516 1519 1522 1523 1525 1526 1527 1529 1531 1534 1538 1540 1543 1545 1547 1550 1552 1554 1556 1558 1560 1561 1563 1564 1566 1567 1568 1569 1571 1572 1573 1575
1488 1482 1485 1487 1492 1496 1489 1496 1493 1485 1490 1489 1491 1495 1500 1506 1511 1515 1518 1520 1523 1524 1525 1526 1528 1531 1533 1536 1538 1541 1544 1546 1549 1550 1552 1554 1556 1557 1559 1561 1562 1563 1565 1566 1567 1569 1570 1571 1572
1484 1486 1488 1488 1492 1509 1495 1498 1499 1487 1487 1486 1489 1495 1501 1506 1511 1515 1517 1520 1522 1524 1524 1526 1527 1530 1532 1535 1537 1539 1542 1544 1546 1548 1550 1552 1554 1555 1556 1558 1559 1561 1562 1564 1565 1566 1567 1569 1570
1487 1499 1510 1512 1512 1512 1490 1493 1493 1481 1480 1484 1489 1495 1501 1506 1510 1514 1517 1519 1521 1523 1524 1525 1527 1528 1531 1533 1535 1537 1540 1542 1544 1546 1548 1550 1551 1552 1554 1555 1556 1558 1559 1561 1562 1564 1565 1566 1567
1488 1494 1513 1521 1519 1507 1496 1498 1487 1477 1481 1485 1490 1496 1501 1506 1510 1514 1517 1519 1521 1522 1524 1525 1526 1527 1529 1531 1534 1536 1538 1540 1542 1545 1546 1548 1549 1550 1551 1553 1554 1555 1557 1558 1560 1561 1562 1563 1564
1487 1489 1483 1494 1499 1507 1500 1491 1483 1477 1482 1486 1490 1496 1501 1505 1510 1513 1517 1519 1521 1522 1524 1525 1526 1527 1529 1530 1532 1534 1536 1539 1541 1543 1544 1545 1547 1548 1549 1550 1551 1553 1554 1556 1557 1558 1559 1560 1561
1479 1480 1486 1495 1510 1515 1506 1499 1494 1486 1484 1486 1490 1495 1500 1505 1509 1514 1517 1519 1521 1522 1524 1525 1526 1527 1529 1530 1532 1533 1535 1537 1539 1541 1542 1543 1545 1546 1547 1548 1550 1550 1552 1553 1554 1555 1556 1557 1558
1484 1486 1487 1489 1491 1507 1515 1513 1485 1483 1483 1486 1490 1495 1500 1504 1508 1512 1516 1519 1521 1522 1524 1525 1526 1528 1529 1530 1531 1533 1534 1536 1538 1539 1540 1542 1543 1544 1545 1546 1547 1548 1549 1550 1551 1552 1553 1554 1555
1474 1480 1485 1500 1500 1494 1503 1504 1480 1481 1482 1485 1490 1495 1500 1504 1508 1512 1515 1518 1521 1522 1524 1525 1527 1528 1529 1530 1531 1532 1534 1535 1537 1538 1539 1540 1541 1542 1544 1545 1545 1546 1547 1548 1549 1550 1551 1552 1552